Probability
0 0 0 0 0 0 0 0 0 6 6 3 3 3 19 42 55 55 48 32 48 45 58 81 100 97 97 97 97 100 100 100 97 94 94 94 94 97 94 87 87 77 74 71 61 58 61 68 65
0 0 0 0 0 0 0 0 3 3 3 0 6 19 23 39 42 48 39 39 48 42 48 71 100 97 97 97 97 97 94 97 90 90 90 94 90 94 94 84 81 81 77 71 65 58 61 58 58
0 0 0 0 0 0 0 6 6 3 0 3 6 26 39 52 48 48 48 52 61 52 68 87 94 94 94 90 90 90 90 90 90 87 87 87 90 90 87 77 81 71 71 71 58 61 65 65 61
0 0 0 0 0 0 0 10 6 0 6 3 19 42 58 52 65 61 48 55 65 65 71 81 87 90 90 90 90 90 90 87 84 84 84 77 81 81 74 81 71 68 65 61 58 55 55 61 68
0 0 0 0 6 3 13 6 3 3 10 10 32 55 68 74 71 58 48 58 65 68 65 77 90 87 84 84 84 84 84 84 77 77 77 77 77 77 74 74 71 58 55 52 55 55 61 61 61
0 0 0 3 6 3 10 6 3 10 10 19 39 58 74 74 74 58 48 58 58 55 68 77 87 84 84 84 81 77 81 77 74 77 74 74 74 77 77 71 68 61 48 52 52 58 58 61 68
0 0 0 0 6 3 10 6 6 19 16 23 32 65 74 74 74 61 52 48 48 55 61 68 74 81 81 81 81 77 77 77 77 77 74 74 77 77 74 74 71 61 58 55 58 58 61 68 74
0 0 0 0 3 3 6 13 13 16 32 32 42 58 74 81 81 71 55 58 58 55 48 48 58 81 71 77 77 77 77 77 77 74 71 71 74 74 65 71 71 65 68 58 55 52 58 68 71
0 0 0 0 0 3 10 19 23 29 32 35 48 61 77 81 77 77 61 61 68 55 55 48 52 52 55 55 68 74 74 71 68 74 74 77 77 68 68 52 65 55 58 52 58 68 65 65 65
0 0 0 0 3 3 16 16 23 26 35 42 48 74 74 77 81 74 61 61 58 55 55 55 52 52 48 39 65 71 65 71 68 65 68 68 68 65 52 48 68 65 61 58 65 71 71 68 58
0 0 0 6 6 13 16 13 23 23 23 42 52 71 77 77 74 68 68 61 65 61 58 45 48 55 39 58 58 65 65 65 58 52 61 68 65 68 61 58 58 71 58 58 65 65 58 61 45
0 0 0 6 10 13 13 16 23 29 42 48 61 71 77 71 71 71 68 71 68 65 58 61 55 55 61 65 58 65 52 58 45 58 61 58 58 61 58 58 55 58 58 58 61 55 52 55 48
3 6 6 10 10 10 13 13 19 29 42 48 52 58 68 61 61 74 71 71 61 61 58 61 65 68 65 65 58 55 58 52 52 55 58 65 61 61 58 52 55 52 55 58 52 45 48 42 42
3 6 6 10 13 6 13 16 16 19 29 45 48 55 55 65 61 61 61 68 65 65 65 68 58 65 61 58 58 58 58 58 55 58 55 61 61 58 52 48 48 55 48 42 45 48 42 42 45
6 6 10 6 10 10 10 10 16 23 35 42 48 48 52 58 61 71 71 68 61 61 68 65 61 58 58 58 58 55 55 55 58 58 58 61 61 61 58 52 55 52 45 42 39 42 42 45 35
3 6 6 3 10 10 3 3 16 32 35 35 45 45 55 65 61 61 65 61 65 65 65 61 52 58 61 61 61 61 61 58 58 61 58 58 55 48 58 55 42 35 39 39 35 35 29 35 32
3 0 0 6 6 6 3 10 19 26 32 32 35 48 52 55 58 52 55 61 61 65 61 58 55 55 58 61 61 61 58 55 58 58 55 45 39 35 35 32 32 29 35 32 19 19 26 26 29
0 0 0 3 6 3 3 6 19 23 26 32 35 39 48 52 55 58 52 52 55 58 55 55 55 55 55 55 58 55 55 48 48 45 45 39 35 26 26 29 26 29 26 26 23 23 26 26 23
0 0 0 0 0 3 6 6 19 29 26 29 26 39 45 58 55 52 52 52 55 52 52 48 48 48 52 55 52 52 48 42 39 42 39 32 29 23 26 23 23 23 19 19 13 16 19 26 23
0 0 0 0 0 0 3 6 16 23 23 29 26 32 48 42 45 42 52 55 55 52 52 48 45 45 52 48 45 39 39 35 35 32 29 29 29 26 13 19 23 19 23 19 16 16 13 16 19
0 0 6 0 0 0 0 0 10 16 26 26 19 29 42 32 42 42 45 48 48 48 45 45 45 48 42 45 39 35 35 32 29 32 29 29 29 26 19 16 16 13 23 13 13 16 13 16 13
0 0 0 0 0 0 0 0 10 13 13 16 16 32 32 29 39 35 42 42 42 39 39 42 42 42 39 32 35 32 32 32 29 29 29 29 23 19 16 16 16 13 10 13 10 10 16 10 16
0 0 0 0 0 0 0 0 0 10 10 16 16 26 29 32 29 32 39 39 39 35 35 35 45 45 35 32 35 35 35 32 26 26 19 19 23 16 13 16 16 13 13 10 16 13 16 10 10
0 0 0 0 0 0 0 0 0 6 10 6 19 26 29 29 35 39 39 39 35 35 35 35 32 39 35 35 29 29 29 29 23 23 16 16 19 19 13 13 13 13 16 16 16 16 13 6 13
0 0 0 0 0 0 0 0 3 6 6 23 13 23 26 32 35 42 39 42 39 39 35 32 32 39 35 32 32 26 23 26 26 19 16 16 6 6 16 6 10 10 13 13 13 13 13 16 16
0 0 0 0 0 0 0 0 10 13 23 23 23 32 26 23 35 39 42 39 32 35 35 35 32 35 35 29 29 23 26 19 19 13 10 6 3 6 6 3 6 6 6 6 10 13 13 13 13
0 0 0 0 0 0 0 3 13 13 23 26 23 29 23 23 32 32 32 26 32 32 32 32 32 29 29 29 32 26 19 19 16 16 13 6 3 0 3 3 3 6 6 6 6 6 10 10 13
0 0 0 0 0 0 0 0 6 16 26 32 19 19 13 26 29 35 29 26 29 32 32 29 29 29 29 32 29 13 16 16 16 6 6 10 3 3 3 6 6 6 6 6 6 10 10 6 6
0 0 0 0 0 0 0 0 3 19 32 29 23 19 29 23 29 29 29 29 32 26 26 29 29 29 32 29 23 16 16 13 10 13 6 6 3 0 0 6 6 6 6 6 10 6 6 3 6
0 0 0 0 0 3 0 0 13 23 29 32 26 26 23 29 26 23 26 23 19 26 26 29 29 29 19 16 13 16 13 13 13 10 6 3 3 3 3 3 6 6 6 6 6 3 3 0 3
Height
5890 5891 5893 5895 5898 5899 5900 5901 5900 5900 5900 5900 5900 5900 5899 5900 5900 5902 5899 5898 5898 5898 5897 5897 5897 5896 5896 5896 5896 5895 5894 5894 5893 5893 5892 5892 5891 5890 5889 5889 5888 5887 5887 5886 5886 5885 5885 5884 5884
5888 5890 5892 5895 5897 5898 5901 5901 5899 5900 5899 5899 5899 5899 5898 5898 5899 5898 5898 5897 5897 5897 5896 5896 5896 5895 5895 5895 5894 5893 5893 5892 5892 5891 5890 5890 5889 5888 5887 5887 5886 5885 5885 5884 5884 5883 5883 5882 5882
5886 5888 5891 5893 5895 5897 5899 5898 5898 5898 5898 5898 5898 5898 5897 5897 5897 5897 5897 5896 5896 5896 5895 5895 5894 5894 5893 5893 5892 5892 5891 5890 5890 5889 5888 5887 5886 5886 5885 5884 5884 5883 5882 5882 5881 5881 5880 5880 5880
5884 5887 5890 5892 5894 5896 5896 5894 5895 5895 5895 5896 5896 5896 5896 5896 5896 5896 5895 5895 5895 5894 5894 5893 5893 5892 5892 5891 5890 5890 5889 5888 5888 5887 5886 5885 5884 5883 5883 5882 5881 5880 5880 5879 5879 5878 5878 5877 5877
5881 5885 5888 5890 5893 5894 5895 5893 5893 5893 5893 5893 5894 5894 5894 5894 5894 5894 5893 5893 5893 5893 5892 5892 5891 5890 5890 5889 5888 5887 5886 5886 5885 5884 5884 5883 5882 5881 5880 5879 5879 5878 5877 5877 5876 5876 5875 5874 5874
5880 5883 5886 5889 5892 5893 5893 5892 5891 5890 5890 5891 5891 5891 5891 5891 5892 5892 5891 5891 5891 5891 5890 5889 5889 5888 5887 5887 5886 5885 5884 5883 5883 5882 5881 5880 5879 5878 5877 5876 5876 5875 5874 5874 5873 5872 5872 5871 5871
5878 5880 5884 5888 5891 5892 5891 5890 5889 5888 5888 5889 5889 5889 5888 5889 5890 5890 5889 5889 5889 5888 5888 5887 5887 5886 5885 5884 5883 5882 5882 5881 5880 5879 5878 5877 5876 5875 5874 5873 5872 5871 5871 5870 5869 5869 5868 5868 5867
5875 5878 5881 5885 5888 5890 5888 5888 5886 5886 5887 5887 5886 5887 5886 5886 5888 5887 5887 5886 5886 5886 5885 5885 5884 5883 5882 5881 5880 5879 5879 5877 5877 5876 5875 5874 5873 5871 5871 5870 5869 5868 5867 5866 5866 5865 5864 5863 5863
5873 5877 5879 5883 5886 5886 5884 5884 5883 5883 5884 5883 5884 5884 5883 5884 5885 5885 5884 5884 5884 5883 5883 5882 5881 5880 5879 5878 5877 5876 5875 5874 5873 5872 5871 5870 5869 5868 5867 5866 5865 5864 5863 5862 5861 5861 5860 5859 5858
5871 5875 5878 5880 5882 5881 5880 5881 5881 5882 5882 5881 5882 5882 5881 5882 5882 5882 5882 5881 5881 5880 5880 5879 5878 5877 5876 5875 5874 5873 5872 5870 5869 5868 5867 5866 5864 5863 5863 5862 5861 5859 5858 5857 5857 5856 5855 5854 5854
5869 5872 5874 5875 5876 5877 5876 5878 5878 5879 5879 5879 5879 5879 5879 5879 5879 5879 5878 5878 5878 5877 5876 5875 5875 5873 5872 5871 5870 5869 5868 5867 5864 5863 5863 5861 5859 5859 5858 5857 5856 5855 5854 5853 5852 5851 5850 5849 5848
5867 5869 5870 5872 5872 5873 5873 5874 5875 5876 5876 5876 5876 5875 5875 5876 5876 5876 5875 5875 5875 5874 5873 5872 5871 5870 5869 5867 5866 5865 5864 5863 5861 5860 5858 5857 5856 5855 5854 5852 5851 5850 5849 5848 5847 5846 5844 5843 5843
5864 5866 5866 5868 5867 5870 5870 5870 5872 5872 5872 5873 5873 5873 5873 5873 5873 5872 5872 5871 5871 5870 5869 5869 5868 5866 5865 5863 5862 5861 5860 5859 5857 5855 5854 5853 5852 5850 5849 5847 5846 5845 5843 5842 5841 5840 5839 5837 5836
5862 5863 5864 5865 5865 5867 5867 5868 5869 5868 5869 5870 5869 5870 5870 5869 5869 5868 5868 5867 5867 5866 5866 5865 5864 5862 5861 5860 5858 5857 5856 5854 5853 5852 5850 5848 5847 5845 5844 5842 5840 5839 5838 5836 5835 5833 5832 5830 5829
5859 5861 5862 5863 5863 5864 5865 5866 5866 5865 5866 5867 5867 5866 5866 5865 5865 5864 5864 5863 5862 5862 5862 5861 5860 5859 5857 5856 5854 5853 5851 5850 5849 5847 5846 5844 5842 5840 5839 5837 5835 5833 5832 5830 5829 5827 5825 5824 5822
5857 5859 5861 5861 5861 5862 5864 5863 5863 5862 5863 5863 5863 5862 5862 5861 5861 5860 5860 5859 5859 5858 5858 5857 5856 5854 5853 5851 5850 5849 5847 5845 5844 5842 5841 5839 5837 5835 5833 5832 5830 5828 5826 5824 5822 5821 5819 5817 5815
5856 5858 5859 5860 5859 5860 5860 5860 5860 5859 5859 5859 5858 5857 5857 5856 5856 5856 5855 5856 5855 5854 5854 5853 5852 5850 5849 5847 5846 5844 5842 5841 5839 5837 5835 5833 5831 5830 5828 5826 5824 5822 5820 5818 5816 5813 5812 5810 5808
5855 5856 5857 5857 5857 5857 5857 5856 5856 5856 5856 5856 5854 5853 5852 5851 5852 5852 5852 5852 5851 5851 5850 5848 5847 5846 5845 5843 5841 5840 5838 5836 5834 5832 5830 5828 5826 5824 5822 5820 5817 5815 5813 5811 5808 5806 5804 5803 5802
5852 5853 5854 5855 5854 5854 5854 5853 5853 5852 5852 5852 5851 5850 5849 5848 5848 5847 5847 5847 5846 5846 5845 5844 5843 5841 5840 5838 5837 5835 5833 5831 5829 5827 5825 5823 5820 5818 5816 5813 5811 5808 5806 5804 5801 5799 5797 5796 5794
5848 5849 5850 5851 5850 5850 5850 5850 5850 5849 5847 5848 5848 5846 5845 5845 5843 5842 5842 5842 5842 5841 5840 5839 5838 5836 5835 5833 5832 5830 5827 5825 5823 5821 5819 5817 5814 5812 5809 5807 5804 5802 5799 5797 5795 5793 5790 5788 5787
5845 5846 5847 5847 5847 5847 5847 5847 5846 5845 5845 5844 5844 5842 5841 5840 5839 5839 5838 5836 5837 5836 5836 5835 5833 5831 5830 5828 5826 5824 5822 5820 5817 5815 5813 5810 5808 5805 5803 5801 5798 5795 5793 5790 5788 5786 5783 5781 5780
5844 5844 5844 5843 5843 5844 5845 5843 5843 5842 5841 5840 5839 5838 5837 5835 5835 5834 5833 5832 5832 5832 5831 5830 5828 5827 5825 5823 5821 5818 5816 5814 5811 5809 5807 5804 5801 5799 5797 5794 5792 5789 5786 5784 5781 5778 5776 5774 5772
5840 5839 5840 5840 5840 5840 5840 5839 5840 5839 5836 5835 5834 5833 5832 5830 5830 5830 5829 5828 5827 5827 5827 5825 5824 5822 5820 5817 5815 5812 5809 5807 5805 5803 5800 5798 5795 5793 5791 5788 5786 5783 5780 5777 5774 5771 5769 5767 5765
5837 5836 5836 5836 5836 5836 5836 5836 5836 5836 5833 5831 5830 5830 5828 5827 5827 5826 5825 5824 5823 5823 5821 5820 5819 5817 5815 5812 5809 5805 5803 5801 5799 5797 5794 5792 5789 5787 5784 5782 5779 5776 5774 5771 5768 5765 5762 5760 5758
5834 5834 5834 5834 5834 5833 5832 5830 5831 5829 5829 5828 5827 5826 5825 5825 5823 5822 5821 5820 5819 5818 5817 5815 5814 5812 5810 5807 5803 5799 5797 5796 5793 5791 5788 5785 5783 5780 5778 5776 5773 5770 5767 5764 5761 5759 5756 5754 5752
5831 5832 5832 5831 5830 5829 5828 5826 5827 5826 5824 5823 5823 5822 5821 5820 5819 5818 5817 5816 5815 5813 5812 5811 5809 5807 5805 5802 5799 5796 5794 5791 5788 5786 5783 5780 5777 5775 5772 5770 5767 5764 5761 5758 5756 5753 5751 5749 5747
5828 5828 5828 5827 5825 5825 5825 5823 5821 5820 5819 5819 5819 5818 5817 5816 5815 5814 5812 5811 5810 5809 5808 5806 5804 5802 5800 5797 5795 5792 5789 5786 5783 5781 5778 5774 5772 5769 5767 5764 5762 5759 5756 5753 5750 5748 5746 5743 5741
5825 5824 5824 5822 5821 5820 5820 5820 5817 5815 5815 5815 5815 5814 5813 5812 5811 5810 5808 5807 5805 5804 5803 5801 5799 5797 5795 5792 5789 5786 5783 5781 5778 5775 5773 5770 5767 5765 5762 5759 5756 5754 5751 5748 5746 5744 5741 5739 5736
5822 5821 5819 5818 5818 5817 5816 5817 5813 5812 5811 5811 5810 5809 5808 5807 5806 5805 5804 5802 5801 5799 5798 5796 5795 5792 5790 5787 5785 5781 5779 5776 5773 5771 5768 5765 5762 5760 5757 5754 5751 5749 5746 5744 5741 5739 5736 5734 5731
5818 5817 5817 5816 5814 5814 5812 5814 5809 5807 5807 5806 5805 5804 5803 5802 5801 5799 5798 5797 5796 5795 5794 5792 5790 5788 5786 5783 5781 5777 5774 5772 5769 5766 5763 5761 5758 5755 5752 5749 5747 5745 5742 5739 5737 5734 5731 5729 5726
Wind_Speed
10 9 8 8 7 5 1 3 8 9 10 10 8 8 8 8 7 7 7 7 6 6 6 6 6 7 7 8 8 8 9 9 10 10 10 10 9 9 9 9 9 9 8 8 8 8 8 8 8
11 10 10 9 8 4 3 8 11 11 11 11 10 10 10 9 9 9 9 8 7 7 7 8 8 9 9 10 10 10 10 11 11 11 11 11 11 10 10 10 10 10 9 9 9 9 10 10 10
12 12 11 10 8 6 8 11 12 14 14 13 12 12 11 10 10 10 10 9 9 9 9 10 10 10 11 12 12 12 12 13 12 12 12 12 12 12 11 11 11 11 10 10 10 11 11 11 12
14 12 12 10 9 6 11 12 12 15 15 14 13 13 12 12 11 11 11 11 11 11 11 12 12 12 13 14 14 14 14 14 14 13 13 14 13 13 12 12 12 12 12 12 12 12 12 12 13
14 13 12 10 9 8 13 15 14 15 16 15 14 13 13 12 12 12 12 13 12 12 12 13 13 14 14 15 15 15 15 15 15 15 15 15 15 14 14 14 14 14 14 14 14 14 13 13 13
15 14 11 9 8 11 15 16 14 15 14 15 14 14 14 13 13 13 14 14 13 13 13 13 14 15 15 16 16 16 16 17 17 17 16 16 16 16 15 15 15 15 15 15 15 15 15 15 15
16 14 12 9 10 13 16 17 16 17 14 14 15 14 15 14 14 15 15 15 14 14 15 15 15 15 16 17 17 17 18 18 18 18 18 17 17 17 17 16 16 16 16 16 17 17 17 17 17
16 15 13 11 13 15 18 18 19 19 16 15 15 15 16 14 15 16 16 15 15 16 16 16 17 17 17 18 18 19 19 19 19 19 19 19 18 18 18 18 18 18 18 18 18 18 18 18 18
16 16 13 11 13 17 18 18 18 19 16 15 16 17 16 15 16 16 16 16 17 17 17 18 18 19 18 18 19 20 20 20 20 20 20 20 20 20 19 20 20 20 19 19 19 19 19 20 20
16 15 12 12 15 18 17 17 18 17 16 17 17 18 17 17 17 17 16 17 17 18 19 19 19 20 19 19 20 20 21 22 22 21 21 21 22 21 20 20 21 21 20 20 20 21 21 21 21
15 15 13 16 18 19 18 18 18 17 17 17 17 18 17 17 17 17 17 17 18 19 20 20 19 19 20 20 20 21 21 22 22 21 22 23 22 21 21 21 21 22 21 22 22 22 23 23 23
15 15 16 17 19 21 20 18 17 18 18 18 16 17 16 18 18 18 18 19 19 19 20 20 20 20 21 21 21 22 22 23 23 23 23 23 23 23 23 23 23 23 23 23 23 23 24 25 25
16 17 19 19 19 19 19 18 17 19 18 17 16 18 18 18 19 19 19 20 20 20 21 21 20 21 22 22 22 22 23 23 23 23 24 24 24 24 24 24 24 24 24 25 25 25 25 26 26
16 17 16 16 16 18 17 18 18 19 18 18 18 18 19 19 20 20 20 21 20 20 21 21 21 22 23 23 22 22 22 23 23 23 24 25 25 25 25 25 25 25 25 26 27 28 27 26 27
14 15 16 18 18 18 18 18 19 20 19 20 21 20 21 21 21 21 21 21 21 20 21 21 22 22 23 23 23 23 22 23 24 24 25 26 26 26 25 25 25 26 26 26 27 28 28 29 29
12 13 15 17 18 17 18 18 20 21 21 21 21 21 21 21 22 22 21 20 20 21 21 22 22 22 23 23 24 24 24 24 25 25 25 26 25 26 26 26 26 27 28 28 28 29 29 30 30
12 13 14 16 17 18 18 19 21 22 21 20 20 21 22 22 22 22 21 21 21 21 21 22 23 23 23 24 24 25 25 25 26 25 25 25 25 26 27 28 28 29 29 29 29 30 30 30 30
11 12 14 16 16 19 19 20 20 20 19 19 20 22 22 22 21 22 22 21 22 22 22 22 23 23 23 24 25 25 25 25 26 25 26 26 26 27 28 28 29 30 31 31 30 29 29 29 29
13 15 17 18 17 19 20 20 20 20 19 21 21 22 22 22 22 22 21 21 22 23 23 23 23 24 24 24 25 25 26 26 26 26 26 26 26 27 28 29 29 30 31 31 30 29 29 28 29
14 15 16 16 17 18 20 20 20 20 19 21 22 22 22 23 22 21 21 21 21 22 23 23 23 24 24 25 25 26 26 26 26 26 27 27 27 28 28 28 28 28 29 29 29 29 29 29 29
14 14 15 17 17 18 20 21 20 20 21 22 21 22 22 22 22 22 22 22 21 22 22 23 23 24 24 25 25 26 27 27 27 27 28 28 28 28 28 28 28 28 28 29 29 29 29 30 29
14 15 16 17 17 17 18 21 19 20 22 21 21 21 20 19 21 22 23 22 22 22 23 24 24 24 24 25 26 27 27 28 28 29 29 28 27 27 28 28 29 29 28 28 29 29 29 29 29
15 13 15 17 16 17 18 21 19 19 21 21 21 21 20 20 20 22 22 22 23 23 24 24 24 24 25 26 27 27 28 28 28 28 28 27 27 27 28 28 28 28 29 29 28 28 28 28 28
15 14 14 15 15 18 18 20 19 19 21 21 20 20 21 21 22 23 23 23 23 24 24 24 24 25 26 26 27 28 28 28 27 26 26 27 27 26 27 28 28 28 29 29 27 27 27 27 26
15 14 14 15 16 19 18 19 20 19 20 22 21 21 22 23 23 23 24 23 23 23 24 24 24 25 25 26 26 25 25 26 26 26 27 27 26 26 27 27 27 28 28 27 26 26 25 25 25
14 14 16 18 17 18 19 19 19 19 20 21 22 22 22 22 23 23 23 23 23 24 24 24 25 25 25 25 25 25 25 25 25 26 26 26 26 26 26 26 26 26 26 25 25 24 23 23 23
13 15 16 19 18 18 17 18 18 20 21 21 21 21 21 21 22 22 22 22 22 23 24 24 24 24 24 24 24 26 25 25 25 26 25 25 24 25 25 24 24 24 24 24 24 23 22 23 22
13 15 15 16 17 18 16 16 18 18 20 20 21 20 21 22 22 22 22 21 21 22 23 23 22 22 22 23 24 25 25 25 24 25 25 24 24 24 24 24 23 23 23 22 22 21 21 21 21
13 15 15 16 17 18 17 18 19 20 20 19 20 21 22 22 23 22 22 21 20 20 21 21 21 22 22 23 23 23 23 23 23 23 24 24 24 24 23 23 22 22 21 21 21 21 20 20 21
14 15 15 17 17 17 18 19 20 21 21 21 22 21 21 22 22 21 21 20 19 19 20 20 21 21 22 22 22 22 21 21 22 22 23 23 23 23 21 22 21 21 21 20 20 20 20 20 21
Wind_Direction
217 213 206 199 194 181 208 265 258 258 260 258 258 265 262 266 273 273 279 280 285 293 293 291 290 290 289 287 289 292 292 290 291 290 289 289 290 289 288 287 287 289 288 289 289 287 285 285 284
218 215 208 200 190 161 261 258 258 262 260 260 265 267 268 267 267 271 275 276 284 288 291 297 295 292 293 292 291 291 291 290 290 291 289 288 289 289 288 285 284 287 289 289 289 290 287 284 282
217 214 210 202 192 187 233 239 254 261 260 258 262 264 268 269 268 271 273 275 281 285 290 293 296 292 291 292 289 290 291 289 289 290 291 291 290 288 288 285 285 286 288 289 290 290 289 285 282
216 213 210 209 204 217 246 245 247 259 259 256 258 265 267 268 271 273 274 276 279 283 289 292 291 291 292 293 289 289 290 289 287 288 290 291 290 289 288 284 285 286 286 288 288 289 289 286 284
215 215 209 209 215 224 248 253 253 257 256 254 254 264 268 268 271 273 275 277 279 283 288 289 292 294 293 293 291 289 289 289 287 288 290 291 292 291 290 288 287 287 287 287 287 287 286 286 284
214 214 209 214 227 239 248 251 249 252 254 257 256 260 267 270 275 276 277 278 282 285 288 291 292 294 292 290 289 288 288 288 289 288 289 290 292 292 291 290 289 288 287 288 288 288 287 285 284
216 211 202 215 240 244 249 252 252 252 251 254 257 260 265 269 275 278 280 282 284 288 288 291 292 293 292 290 288 288 290 290 290 289 289 290 291 291 291 288 289 290 288 286 288 289 288 286 283
216 212 202 217 235 242 252 254 252 256 255 255 256 261 267 272 277 281 282 283 285 287 289 289 291 291 291 291 292 290 291 291 289 289 289 289 290 291 290 289 289 290 289 289 289 287 285 284 284
214 212 205 221 240 242 248 254 253 256 257 257 262 266 275 277 281 283 281 283 286 288 288 290 292 292 291 292 293 291 290 290 289 288 289 289 288 289 290 290 290 290 289 289 287 287 285 284 283
214 215 208 222 238 239 244 252 251 255 257 259 262 266 274 279 282 282 279 282 286 289 290 291 292 293 291 291 291 292 291 291 290 288 289 291 290 289 290 290 290 289 289 289 287 287 286 285 283
217 214 217 228 231 235 239 243 246 249 255 258 262 267 271 276 279 282 283 285 287 290 291 292 295 295 294 291 290 291 292 292 292 291 291 291 291 290 291 290 291 290 290 291 290 288 287 286 284
216 219 223 232 236 236 241 243 246 251 253 256 260 267 270 276 278 279 283 287 288 290 291 293 296 297 297 294 291 292 293 293 292 293 293 292 294 291 289 290 290 291 291 290 290 289 287 284 283
220 226 230 234 237 244 247 248 252 253 255 259 262 270 274 277 277 277 281 286 288 287 291 294 295 296 296 294 291 291 292 294 292 293 292 292 293 291 291 291 291 292 291 289 289 288 287 285 284
230 233 242 248 246 249 250 255 261 261 259 260 263 268 273 276 279 281 284 285 284 286 290 292 294 294 295 294 292 290 291 292 292 293 293 292 291 290 291 292 292 292 291 289 289 288 288 288 287
236 238 246 251 252 254 258 258 266 269 270 269 269 271 273 277 281 283 284 285 284 286 288 290 293 293 293 294 294 292 291 292 293 293 293 292 292 292 293 294 293 292 292 292 292 290 289 288 287
240 240 244 254 259 262 262 262 264 267 272 274 272 272 274 278 281 281 283 284 284 285 287 289 293 293 293 294 294 293 291 292 293 293 292 293 292 293 293 291 292 293 293 292 291 291 290 288 285
240 247 251 254 262 264 265 264 264 268 274 279 278 275 276 276 279 279 280 281 283 285 287 290 292 293 294 295 295 293 293 292 292 292 292 293 292 293 293 292 292 293 294 293 293 292 291 290 287
241 246 253 253 253 263 266 267 269 272 275 278 282 284 281 277 279 278 279 278 280 282 287 289 290 291 292 295 293 293 293 292 294 295 294 293 294 294 295 293 293 293 293 293 293 293 291 289 288
247 249 248 253 252 258 264 271 274 278 275 281 284 283 282 283 280 280 280 279 282 284 287 288 289 290 293 295 296 296 295 293 293 294 294 293 293 294 294 294 294 294 293 292 292 293 291 289 288
253 252 255 255 257 257 266 272 275 276 279 285 287 284 281 281 279 279 280 282 284 286 287 289 293 293 293 296 295 296 296 295 293 294 293 294 293 293 294 294 297 296 295 294 292 292 290 290 288
256 257 256 257 259 265 270 275 274 277 280 283 285 284 281 279 277 279 282 281 283 287 289 292 295 296 295 296 295 295 296 295 294 294 295 294 294 295 295 296 298 298 296 296 293 291 290 290 287
257 256 260 262 264 266 267 271 271 273 274 279 281 283 282 278 277 279 283 281 283 286 289 292 295 296 297 297 297 297 296 297 296 297 297 295 295 295 297 297 298 298 298 296 295 293 292 290 287
262 257 260 263 266 267 264 268 272 276 273 277 279 281 281 281 285 283 285 282 283 285 289 292 295 296 298 299 299 299 298 298 297 299 299 295 296 297 299 299 298 298 299 299 297 296 294 291 288
267 262 263 266 272 272 270 270 273 269 272 274 276 275 276 282 284 284 285 286 287 287 290 291 295 296 297 298 298 299 296 297 296 298 300 298 297 298 300 300 299 299 299 300 299 297 296 294 291
269 267 270 270 270 274 274 270 274 268 274 279 275 275 278 284 286 284 284 287 287 288 290 292 294 296 297 299 300 301 298 297 298 300 300 300 298 299 300 300 301 300 300 299 299 300 300 298 294
267 266 269 272 270 274 277 276 277 276 275 275 274 279 283 282 284 286 286 287 285 286 289 292 295 297 298 300 301 302 302 300 300 302 303 303 303 302 301 301 302 303 302 302 302 301 301 299 298
269 262 261 266 268 272 277 283 277 279 279 278 279 282 285 282 284 285 285 287 287 288 291 293 295 298 300 302 303 303 303 303 302 303 305 305 307 306 303 303 304 306 306 305 304 303 302 301 300
271 274 270 270 275 276 273 275 275 272 277 281 282 283 287 286 284 286 286 287 289 289 290 292 295 299 302 304 306 306 305 303 302 302 304 305 308 308 306 308 309 308 309 308 305 303 303 302 301
275 276 275 276 278 280 280 280 280 277 279 281 281 284 289 290 287 286 288 289 288 288 290 294 296 300 303 307 309 309 306 305 303 302 304 305 307 308 308 307 309 310 309 307 305 305 305 304 304
263 265 270 277 279 275 280 281 283 286 289 286 285 286 290 291 290 289 288 289 291 291 292 296 299 301 303 306 309 308 307 308 309 308 308 308 307 309 309 308 308 309 309 309 307 307 308 306 306